Location: Ferchesar
(52.6477°N, 12.4298°E)
Time: 04:39:32
(UTC+01:00)

Vanguard 1 - Pass Details

Date: 09 December 2021
Orbit: 652 x 3830 km, 34.2° (Epoch: 21 January)

Event Time Altitude Azimuth Distance (km) Brightness Sun altitude
Exits shadow 05:54:29 14° 254° (WSW) 6,233 13.6 -19.2°
Maximum altitude 06:01:45 17° 232° (SW) 5,512 13.5 -18.1°
Drops below altitude 10° 06:10:49 10° 198° (SSW) 5,340 13.8 -16.8°
Sets 06:16:24 0° 180° (S) 5,763 14.2 -16.0°
